Content
SEND FEEDBACK

Daily
Averages
Monthly
Summary
Canada

CALGARY, ALBERTA


Home > North America > Canada > Alberta
Elevation: 3556 feet     Latitude: 51 06N     Longitude: 114 01W

WEATHER
 
SELECT A DAY
Number of Records: 192,071;   Date Range: 1/1/95 - 7/23/14
 
SHARE

PRINT THIS DATA

[ ← Previous Day ]
WEATHER ALMANAC - FEBRUARY 8, 2013
[ Next Day → ]
[ °C ]   °F
Weather ElementAverageHighLow
Temperature31.9 °F41 °F (1:00 pm)24.8 °F (1:00 am)
Dewpoint15.7 °F23 °F (2:00 pm)12.2 °F (7:00 am)
Humidity50.1 %64 % (1:00 am)28 % (11:00 am)
Barometer29.99 in30.02 in (9:00 am)29.94 in (11:00 pm)
Wind Speed7.9 mph15 mph (10:00 am)
Wind Gust18.4 mph (1:00 pm)
Weather ElementAverage
Visibility26.9 mi
Wind DirectionSSW (216.2 °)

Weather ElementTotal
Precipitation---
Heating Degree Days32.1 (Base 65)
Averaged from 29 records on February 8, 2013
WEATHER CONDITIONS BREAKOUT
WIND DIRECTION BREAKOUT
WEATHER BY HOUR - FEBRUARY 8, 2013
[ °C ]   °F
Local TimeTemperatureDewpointHumidityBarometerVisibilityWind DirectionWind SpeedGust SpeedPrecipitationEventsConditions
1:00 AM24.8 °F14.0 °F64 %29.99 in15.0 miNNW (340°)6.9 mphClear
2:00 AM26.6 °F15.8 °F64 %29.98 in15.0 miNW (320°)6.9 mphPartly Cloudy
3:00 AM26.6 °F14.0 °F59 %29.99 in15.0 miNNW (340°)8.1 mphPartly Cloudy
4:00 AM28.4 °F14.0 °F55 %29.98 in15.0 miNW (320°)6.9 mphClear
5:00 AM30.0 °F14.0 °F37 %30.00 in15.0 miWNW (300°)9.2 mphClear
5:00 AM30.2 °F14.0 °F51 %29.99 in15.0 miWNW (300°)9.2 mphClear
6:00 AM30.2 °F14.0 °F51 %29.99 in15.0 miWNW (300°)11.5 mphPartly Cloudy
7:00 AM26.6 °F12.2 °F55 %30.01 in15.0 miWSW (250°)5.8 mphClear
8:00 AM28.4 °F12.2 °F51 %30.01 in40.0 miWest (280°)3.5 mphClear
9:00 AM28.4 °F14.0 °F55 %30.02 in40.0 miSouth (190°)4.6 mphClear
10:00 AM33.8 °F14.0 °F44 %30.01 in40.0 miWest (260°)15.0 mphClear
11:00 AM37.0 °F15.0 °F28 %30.01 in37.0 miWSW (250°)13.8 mphScattered Clouds
11:00 AM37.4 °F15.8 °F41 %30.01 in40.0 miWSW (250°)13.8 mphPartly Cloudy
12:00 PM39.2 °F15.8 °F39 %30.00 in40.0 miWest (260°)11.5 mph17.3 mphPartly Cloudy
1:00 PM41.0 °F14.0 °F33 %29.99 in40.0 miWest (270°)12.7 mph18.4 mphScattered Clouds
2:00 PM37.4 °F23.0 °F56 %29.98 in40.0 miEast (80°)6.9 mphScattered Clouds
2:15 PM33.8 °F21.2 °F60 %29.99 in40.0 miNE (50°)9.2 mphScattered Clouds
3:00 PM33.8 °F19.4 °F56 %29.99 in40.0 miNE (40°)6.9 mphClear
4:00 PM35.6 °F14.0 °F41 %29.98 in40.0 miNE (40°)4.6 mphClear
5:00 PM33.0 °F15.0 °F33 %29.98 in37.0 miNNE (30°)3.5 mphScattered Clouds
5:00 PM32.0 °F15.8 °F51 %29.98 in40.0 miNE (40°)3.5 mphPartly Cloudy
6:00 PM28.4 °F15.8 °F59 %29.98 in40.0 miSouth (180°)8.1 mphClear
7:00 PM30.2 °F19.4 °F64 %29.99 in15.0 miSouth (190°)8.1 mphMostly Cloudy
8:00 PM28.4 °F17.6 °F64 %29.98 in15.0 miSSW (210°)6.9 mphPartly Cloudy
9:00 PM28.4 °F17.6 °F64 %29.98 in15.0 miSouth (190°)8.1 mphScattered Clouds
10:00 PM32.0 °F15.8 °F51 %29.96 in15.0 miWSW (250°)5.8 mphMostly Cloudy
11:00 PM33.0 °F16.0 °F36 %29.95 in15.0 miSW (230°)4.6 mphMostly Cloudy
11:00 PM33.8 °F15.8 °F48 %29.94 in15.0 miSW (220°)4.6 mphMostly Cloudy
11:36 PM35.6 °F15.8 °F44 %29.94 in15.0 miWNW (290°)9.2 mph18.4 mphMostly Cloudy
Hourly data recorded from CYYC, located miles away from Calgary, Alberta







STORIES FROM OUR PARTNERS